THORAD AGENA D DEB, 4677

Orbit data source: Space-Track

THORAD AGENA D DEB, 4677 is space debris in SSO originally from a launch on Wed, 08 Apr 1970 UTC launched from the Air Force Western Test Range (AFWTR). Debris objects in space refer to the collection of defunct objects orbiting the Earth. Examples of debris include non-operational satellites, rocket bodies, and fragments generated from explosions, collisions, or faulty payload assembly.

Loading next visibility...
Identifier
4677, 1970-025BA
Orbit
SSO
Country
Flag of USUS
Related business
Manufacturer
Unknown
Mission
Spacecraft
Bus & Motor
Unknown
Mass
Unknown
Launch date (UTC)
1970-04-08 (56 years ago)
Launch vehicle
Unknown
Launch site
Air Force Western Test Range (AFWTR)
Object type
Payload
Rocket body
Debris
Shape & HBR
Unknown shape, 0.1 m
Radar Cross Section
Small (<0.1 m²)

Expand to show TLE details & history
Last TLE update: 5 hours ago

TLE from 5 hours ago
0 THORAD AGENA D DEB
1 04677U 70025BA  25291.28059300  .00000237  00000-0  38972-3 0  9998
2 04677  99.9692  42.8499 0009449  40.6415 347.3616 13.58362581745718
Epoch: 2025-10-18T06:44Z
TLE epoch observation values (Epoch: 2025-10-18T06:44:03.235Z)
Latitude
27.56154°
Longitude
-90.41402°
Altitude
1,038.072 km
Speed
7.339 km/s
True Right ascension
02h 30m 27s
True Declination
27° 25' 34"
Sunlit
Object was in full shadow at epoch
Visualization orbit readout
Latitude
Unknown
Longitude
Unknown
Altitude
Unknown
Speed
Unknown
Apparent Right ascension
Unknown
Apparent Declination
Unknown
Sunlit
N/A
Visualization observer readout
Local Sidereal Time
07:01:47
Azimuth
Unknown
Elevation
Unknown
Doppler factor
Unknown
Orbital elements
Apogee altitude
1,045.961 km
Perigee altitude
1,031.945 km
Semi-major axis
7,417.09 km
Eccentricity
0.00094
Inclination
99.9692°
RAAN
42.8499°
Arg. of periapsis
40.6415°
True anomaly
347.33788°
Mean anomaly
347.3616°
Eccentric anomaly
347.34974°
Mean motion
3.39776 °/min
Orbital period
105.95 mins
BSTAR
0.00038972

Documentation

Showing up to 5 results
|